CAPE
2400 1876 1842 1688 217 99 0 12 0 72 214 129 52 0 0 0 0 10 0 0 0 0 0 1 4 22 58 69 11 12 15 25 15 15 46 123 16 101 133 47 24 0 7
1806 1758 1210 867 100 18 58 279 216 568 205 70 40 9 0 0 0 0 0 0 0 0 0 0 0 0 0 0 11 12 0 0 0 5 43 1 1 25 44 52 58 32 10
1367 794 435 91 351 582 738 905 738 616 557 149 59 11 7 3 0 0 0 0 0 0 0 0 0 0 0 0 0 0 0 9 0 0 0 35 82 90 19 36 33 57 33
653 321 189 385 877 1102 1017 937 624 656 581 360 5 49 0 27 0 0 0 0 0 0 0 0 0 0 0 3 10 3 0 0 3 0 0 7 23 16 3 1 0 6 48
579 415 426 535 947 1081 989 636 645 634 842 509 114 0 0 1 12 0 0 0 0 0 0 0 0 0 0 0 0 5 24 10 3 0 0 0 6 2 0 0 6 14 54
651 513 869 1029 797 1013 708 648 816 522 252 88 0 0 0 0 0 0 0 0 0 0 0 0 0 0 0 0 0 0 10 19 27 30 11 0 10 0 0 0 1 30 2
922 940 891 819 770 593 712 584 373 161 68 0 0 0 0 0 0 0 0 0 4 0 0 0 0 0 0 0 0 0 3 23 39 50 37 42 40 34 55 72 52 36 36
720 736 563 327 249 364 555 174 6 0 0 0 0 0 0 0 0 0 0 0 0 0 0 0 0 0 0 0 0 0 0 0 0 0 26 6 2 149 101 77 138 196 156
579 275 17 0 0 115 166 29 0 0 0 0 0 0 0 0 0 0 0 0 0 0 0 0 0 0 0 0 0 0 0 0 0 0 0 0 0 0 25 135 154 120 149
97 0 64 33 24 0 0 0 0 0 0 0 0 0 0 0 0 0 0 0 0 0 0 0 0 0 0 0 0 0 0 0 0 0 0 0 0 0 0 83 123 124 178
349 142 0 0 0 0 0 0 0 0 0 0 0 0 0 0 0 0 0 0 0 0 0 0 0 0 0 0 0 0 0 0 0 0 0 0 0 0 0 115 186 38 113
0 0 0 0 0 0 0 0 0 0 0 0 0 0 0 0 0 0 0 0 0 0 0 0 0 0 0 0 0 0 0 0 0 0 0 0 0 0 0 45 146 237 195
0 0 0 0 0 0 0 0 0 0 0 0 0 0 0 0 0 0 0 0 0 0 0 0 0 0 0 0 0 0 0 0 2 0 0 1 0 0 0 0 11 269 221
0 0 0 0 0 0 0 0 0 0 0 0 0 0 0 0 0 0 0 0 0 0 0 0 0 0 0 0 0 0 0 0 2 3 2 4 11 1 7 5 5 16 124
0 0 0 0 0 0 0 0 0 0 0 0 0 0 0 0 0 0 0 0 0 0 0 0 0 0 0 0 0 0 0 0 0 0 0 3 1 8 0 8 5 19 29
0 0 0 0 0 0 0 0 0 0 0 0 0 0 0 0 0 0 0 0 0 0 0 0 0 0 0 1 1 0 0 1 2 2 2 2 1 2 3 0 0 16 24
0 0 0 0 0 0 0 0 0 0 0 0 0 0 0 0 0 0 0 0 0 0 0 0 0 0 0 0 1 2 2 1 2 2 3 1 3 4 11 2 6 1 13
0 0 0 0 0 0 0 0 0 0 0 0 0 0 0 0 0 0 0 0 0 0 0 0 0 0 0 0 1 2 2 2 2 2 2 4 2 1 2 1 0 0 0
0 0 0 0 0 0 0 0 0 0 0 0 0 0 0 0 0 0 0 0 0 0 0 0 0 0 0 0 1 1 1 2 2 2 1 2 2 2 3 3 3 1 0
0 0 0 0 0 0 0 0 0 0 0 0 0 0 0 0 0 0 0 0 0 0 0 0 0 0 0 0 0 0 1 1 2 2 2 1 2 2 2 3 3 3 3
0 0 0 0 0 0 0 0 0 0 0 0 0 0 0 0 0 0 0 0 0 0 0 0 0 0 0 0 0 0 0 0 1 2 1 1 2 3 3 3 2 2 2
0 0 0 0 0 0 0 0 0 0 0 0 0 0 0 0 0 0 0 1 0 0 0 0 0 0 0 0 0 0 0 0 0 1 2 2 2 3 4 6 5 4 3
0 0 0 0 0 0 0 0 0 0 0 0 0 0 0 0 0 0 4 2 0 0 0 0 0 0 0 0 0 0 0 0 0 0 1 2 4 6 6 6 6 6 5
0 0 0 0 3 1 0 0 0 0 0 0 4 5 2 2 0 2 20 5 1 0 0 0 0 0 0 0 0 0 0 0 0 0 0 1 5 5 6 5 4 5 5
0 0 0 4 14 17 14 7 6 0 6 18 22 12 12 5 0 12 16 0 0 0 0 0 0 0 0 0 0 0 0 0 0 0 0 0 1 5 5 5 7 5 5
0 0 9 15 29 33 15 22 7 25 17 2 5 15 17 4 0 0 0 0 0 0 0 0 0 0 0 0 0 0 0 0 0 0 0 0 0 4 4 5 3 4 4
CIN
-21 -48 -33 -13 -119 -146 -0 -73 -0 -67 -32 -46 -60 -0 -0 -0 -0 -73 -0 -0 -0 -0 -0 -7 -32 -56 -40 -42 -20 -28 -20 -16 -5 -26 -27 -33 -114 -56 -54 -26 -144 -0 -146
-46 -41 -55 -69 -115 -123 -100 -30 -27 -21 -30 -44 -59 -81 -0 -0 -0 -0 -0 -0 -0 -0 -0 -0 -0 -0 -0 -0 -18 -20 -0 -0 -1 -19 -35 -71 -83 -58 -100 -70 -71 -101 -143
-48 -73 -92 -107 -54 -42 -16 -17 -24 -28 -29 -24 -31 -29 -17 -2 -0 -0 -0 -0 -0 -0 -0 -0 -0 -0 -0 -0 -0 -0 -0 -22 -0 -0 -1 -35 -39 -29 -80 -108 -135 -106 -115
-75 -88 -87 -63 -30 -24 -28 -31 -34 -33 -22 -19 -4 -40 -0 -9 -0 -17 -0 -0 -0 -0 -0 -0 -0 -0 -0 -9 -15 -7 -0 -0 -12 -0 -0 -28 -46 -13 -45 -57 -0 -108 -80
-81 -63 -47 -41 -28 -35 -29 -33 -27 -21 -3 -3 -14 -0 -0 -0 -2 -2 -0 -0 -0 -0 -0 -0 -0 -0 -0 -2 -2 -14 -14 -14 -12 -0 -0 -0 -69 -17 -0 -0 -58 -67 -65
-98 -76 -26 -21 -28 -20 -25 -23 -18 -23 -23 -21 -0 -0 -0 -0 -0 -0 -0 -0 -0 -0 -0 -0 -0 -0 -0 -0 -0 -0 -13 -12 -11 -7 -12 -0 -29 -1 -0 -0 -60 -37 -64
-36 -25 -27 -28 -21 -37 -38 -40 -41 -35 -12 -0 -0 -0 -0 -0 -0 -0 -0 -0 -10 -0 -0 -0 -0 -0 -0 -0 -0 -0 -22 -19 -13 -11 -8 -11 -12 -22 -11 -38 -40 -37 -57
-67 -104 -116 -77 -62 -12 -27 -67 -31 -0 -0 -0 -0 -0 -0 -0 -0 -0 -0 -0 -0 -0 -0 -0 -0 -0 -0 -0 -0 -0 -0 -0 -0 -0 -67 -4 -7 -32 -12 -19 -17 -19 -42
-131 -148 -114 -0 -25 -63 -42 -140 -0 -0 -0 -0 -0 -0 -0 -0 -0 -0 -0 -0 -0 -0 -0 -0 -0 -0 -0 -0 -0 -0 -0 -0 -0 -0 -0 -0 -0 -0 -38 -12 -15 -12 -22
-232 -0 -198 -184 -190 -0 -0 -0 -0 -0 -0 -0 -0 -0 -0 -0 -0 -0 -0 -0 -0 -0 -0 -0 -0 -0 -0 -0 -0 -0 -0 -0 -0 -0 -0 -0 -0 -0 -0 -42 -25 -20 -16
-124 -164 -0 -0 -0 -0 -0 -0 -0 -0 -0 -0 -0 -0 -0 -0 -0 -0 -0 -0 -0 -0 -0 -0 -0 -0 -0 -0 -0 -0 -0 -0 -0 -0 -0 -0 -0 -0 -0 -37 -33 -20 -21
-0 -0 -0 -0 -0 -0 -0 -0 -0 -0 -0 -0 -0 -0 -0 -0 -0 -0 -0 -0 -0 -0 -0 -0 -0 -0 -0 -0 -0 -0 -0 -0 -0 -0 -0 -0 -0 -0 -0 -45 -28 -16 -21
-0 -0 -0 -0 -0 -0 -0 -0 -0 -0 -0 -0 -0 -0 -0 -0 -0 -0 -0 -0 -0 -0 -0 -0 -0 -0 -0 -0 -0 -0 -0 -0 -0 -0 -0 -11 -0 -0 -0 -13 -32 -23 -25
-0 -0 -0 -0 -0 -0 -0 -0 -0 -0 -0 -0 -0 -0 -0 -0 -0 -0 -0 -0 -0 -0 -0 -0 -0 -0 -0 -0 -0 -0 -0 -0 -0 -0 -8 -40 -30 -10 -29 -44 -42 -33 -26
-0 -0 -0 -0 -0 -0 -0 -0 -0 -0 -0 -0 -0 -0 -0 -0 -0 -0 -0 -0 -0 -0 -0 -0 -0 -0 -0 -0 -0 -0 -0 -0 -0 -0 -0 -0 -0 -58 -27 -57 -53 -44 -43
-0 -0 -0 -0 -0 -0 -0 -0 -0 -0 -0 -0 -0 -0 -0 -0 -0 -0 -0 -0 -0 -0 -0 -0 -0 -0 -0 -0 -0 -0 -0 -0 -0 -0 -0 -0 -0 -83 -72 -14 -17 -42 -34
-0 -0 -0 -0 -0 -0 -0 -0 -0 -0 -0 -0 -0 -0 -0 -0 -0 -0 -0 -0 -0 -0 -0 -0 -0 -0 -0 -0 -0 -0 -0 -0 -0 -0 -0 -0 -0 -0 -37 -0 -62 -46 -21
-0 -0 -0 -0 -0 -0 -0 -0 -0 -0 -0 -0 -0 -0 -0 -0 -0 -0 -0 -0 -0 -0 -0 -0 -0 -0 -0 -0 -0 -0 -0 -0 -0 -0 -0 -0 -0 -0 -0 -0 -0 -0 -0
-0 -0 -0 -0 -0 -0 -0 -0 -0 -0 -0 -0 -0 -0 -0 -0 -0 -0 -0 -0 -0 -0 -0 -0 -0 -0 -0 -0 -0 -0 -0 -0 -0 -0 -0 -0 -0 -0 -0 -0 -0 -0 -0
-0 -0 -0 -0 -0 -0 -0 -0 -0 -0 -0 -0 -0 -0 -0 -0 -0 -0 -0 -0 -0 -0 -0 -0 -0 -0 -0 -0 -0 -0 -0 -0 -0 -0 -0 -0 -0 -0 -0 -0 -0 -0 -0
-0 -0 -0 -0 -0 -0 -0 -0 -0 -0 -0 -0 -0 -0 -0 -0 -0 -0 -0 -0 -0 -0 -0 -0 -0 -0 -0 -0 -0 -0 -0 -0 -0 -0 -0 -0 -0 -0 -0 -0 -0 -0 -0
-0 -0 -0 -0 -0 -0 -0 -0 -0 -0 -0 -0 -0 -0 -0 -0 -0 -0 -0 -23 -6 -0 -0 -0 -0 -0 -0 -0 -0 -0 -0 -0 -0 -0 -0 -0 -0 -0 -0 -0 -0 -0 -0
-0 -0 -0 -0 -0 -0 -0 -0 -0 -0 -0 -0 -0 -0 -0 -0 -0 -0 -31 -16 -0 -0 -0 -0 -0 -0 -0 -0 -0 -0 -0 -0 -0 -0 -0 -0 -0 -0 -0 -0 -0 -0 -0
-0 -0 -0 -0 -24 -12 -0 -0 -0 -0 -0 -0 -9 -14 -18 -14 -0 -9 -11 -20 -21 -0 -0 -0 -0 -0 -0 -0 -0 -0 -0 -0 -0 -0 -0 -0 -0 -0 -0 -0 -0 -0 -0
-0 -0 -3 -33 -16 -21 -17 -16 -18 -0 -13 -12 -11 -21 -21 -19 -0 -36 -40 -0 -0 -0 -0 -0 -0 -0 -0 -0 -0 -0 -0 -0 -0 -0 -0 -0 -0 -0 -0 -0 -0 -0 -0
-0 -0 -39 -17 -17 -11 -11 -16 -16 -16 -11 -10 -13 -21 -22 -22 -0 -0 -0 -0 -0 -0 -0 -0 -0 -0 -0 -0 -0 -0 -0 -0 -0 -0 -0 -0 -0 -0 -0 -0 -0 -0 -0
Wind_Speed
14 15 15 15 16 15 16 17 18 21 23 25 26 29 31 31 31 29 31 33 32 31 29 28 26 20 13 12 12 10 10 9 17 25 14 23 34 34 28 24 23 23 35
15 16 16 16 17 17 16 17 19 22 25 26 25 27 30 32 31 29 32 33 34 33 31 30 29 26 23 19 15 13 10 9 12 13 16 19 24 20 30 27 21 15 19
16 16 16 16 17 19 19 20 22 25 26 27 27 28 29 32 26 29 30 32 34 34 32 32 32 30 28 25 22 21 20 17 17 13 13 17 19 19 26 30 29 26 17
14 14 14 14 17 19 20 23 26 27 27 28 27 27 29 31 25 29 30 32 33 34 32 32 33 31 31 32 29 24 21 21 21 21 19 20 22 22 19 27 33 28 27
13 11 12 14 16 18 22 25 26 27 28 28 29 31 32 32 27 30 31 33 33 34 33 32 33 34 34 35 32 32 28 26 25 24 26 25 24 23 21 22 28 30 30
12 11 12 14 17 20 24 26 25 28 30 31 32 32 32 32 31 31 31 32 33 34 34 34 35 34 35 34 35 34 31 29 30 29 30 28 28 28 26 24 27 28 28
12 13 15 18 20 24 23 24 26 29 31 31 31 32 32 33 34 33 33 33 33 33 34 35 34 31 33 34 35 34 32 31 29 30 32 32 33 30 32 31 26 26 26
12 15 20 20 23 27 24 25 28 29 30 31 30 29 29 32 34 34 34 33 35 36 36 36 35 29 33 35 36 35 34 34 33 33 28 31 34 33 28 32 32 29 28
15 16 16 18 20 17 19 24 29 29 27 27 28 26 27 30 34 36 36 37 38 38 38 36 36 30 36 40 38 38 38 38 37 38 37 39 38 36 32 29 32 32 31
15 16 18 19 19 17 21 23 24 26 27 27 25 24 26 30 35 38 39 37 38 39 37 36 36 37 43 44 42 40 41 37 38 41 42 42 39 37 34 25 27 29 29
16 17 18 19 19 22 23 21 24 24 25 27 26 26 28 31 35 40 41 39 38 38 38 38 37 40 43 43 42 38 34 35 38 36 39 37 36 35 33 28 24 26 27
15 16 18 21 21 20 21 23 24 25 26 27 27 29 31 33 36 40 40 39 38 39 40 40 41 44 44 41 40 39 40 38 34 33 31 32 33 33 34 35 33 28 26
15 17 19 21 21 21 20 20 24 26 26 26 27 30 32 34 36 38 40 40 40 41 40 41 43 43 43 39 41 40 38 37 38 36 33 33 35 34 34 34 34 34 30
15 17 18 20 20 20 21 21 23 24 24 25 27 30 31 34 37 39 41 42 43 43 43 40 41 42 42 41 40 39 38 37 38 38 37 37 35 34 35 33 34 34 31
15 18 19 18 20 19 20 18 19 20 21 22 24 26 30 33 34 35 39 42 44 46 45 44 45 45 44 44 43 42 40 39 39 40 39 39 36 36 35 33 33 33 33
15 18 19 18 19 19 17 18 18 18 18 19 20 22 25 27 30 32 35 38 41 44 46 49 50 49 47 46 44 44 42 41 40 40 38 38 38 37 37 36 34 33 33
17 18 17 18 19 18 18 18 18 18 17 17 17 19 21 24 27 29 32 34 38 42 45 47 50 50 49 46 44 42 42 41 41 39 39 38 37 37 37 36 34 34 33
17 16 18 16 19 19 19 19 17 17 19 19 15 16 18 20 23 24 28 31 37 40 42 44 47 49 49 47 45 42 40 40 39 39 39 38 39 39 39 39 38 38 37
17 17 19 15 18 17 18 21 19 21 22 23 20 19 16 17 21 20 25 29 34 38 39 40 41 45 46 45 43 41 40 40 39 36 37 36 36 38 40 40 41 41 39
18 18 15 18 17 20 21 22 22 22 23 24 23 24 24 21 25 28 25 24 28 31 32 34 36 38 40 41 42 42 40 39 39 34 35 35 35 36 38 40 41 43 42
13 15 16 17 18 18 19 21 19 22 24 25 27 26 25 26 28 30 32 24 26 27 27 29 31 33 33 33 37 38 38 38 32 35 36 36 36 37 37 38 39 43 42
18 11 14 18 17 16 17 18 18 20 22 24 25 25 27 28 29 29 28 28 29 23 24 25 26 27 25 24 28 29 26 27 26 28 25 29 38 38 38 39 40 40 40
19 18 14 15 14 14 15 17 19 20 21 23 23 25 28 32 33 30 31 28 27 25 23 23 24 21 21 18 17 15 15 13 11 13 9 17 12 37 39 40 40 40 40
11 16 19 23 14 11 17 17 21 20 20 22 23 24 29 37 32 29 29 28 28 28 27 23 22 21 15 13 12 12 9 9 12 13 11 15 18 18 25 37 39 39 40
15 18 20 14 16 15 16 20 23 20 21 20 21 25 28 31 29 29 28 31 33 33 31 27 22 19 10 9 8 8 8 9 10 12 13 13 18 20 18 15 25 36 39
15 19 23 20 21 24 23 22 21 20 20 22 22 23 25 29 29 29 33 34 35 33 31 30 27 26 23 20 11 8 8 10 13 14 19 18 14 15 10 8 11 27 38
Wind_Direction
81 88 83 73 58 48 18 10 12 11 6 360 357 353 349 343 340 356 353 348 343 344 355 3 5 16 31 34 27 19 2 341 321 316 323 314 298 296 302 304 301 304 289
87 85 86 82 73 63 35 16 15 7 359 358 0 1 355 349 353 358 355 354 351 349 347 346 346 354 2 11 15 20 14 1 349 339 338 326 315 321 299 306 310 310 304
79 80 79 66 54 34 32 14 1 355 356 354 351 351 351 345 4 357 0 356 351 348 346 344 338 340 341 347 352 353 351 354 355 352 343 337 330 323 311 304 306 305 311
70 78 71 55 33 24 14 358 347 348 349 351 354 354 349 346 360 353 354 354 355 350 346 341 335 336 336 334 333 336 338 340 339 339 341 339 332 332 326 312 301 305 302
68 68 51 32 23 11 4 355 351 348 349 350 346 344 343 344 355 350 348 348 349 347 346 342 339 333 327 328 332 326 326 324 326 327 324 324 324 326 329 328 311 304 300
62 50 28 9 0 356 354 350 352 346 342 342 341 343 345 349 351 348 349 349 347 343 339 336 332 333 328 327 324 322 325 322 315 314 313 315 316 316 318 319 314 309 304
39 28 16 353 349 344 349 349 345 344 342 342 343 343 348 348 348 349 348 347 345 345 343 341 341 346 340 334 326 322 322 322 320 315 309 308 307 309 307 306 310 307 303
54 22 9 357 347 339 339 340 338 343 345 344 346 352 359 356 354 352 351 350 345 341 341 340 340 347 342 336 332 328 323 315 315 316 320 313 308 307 308 302 300 301 300
23 21 28 27 6 17 2 355 338 342 354 355 354 2 5 1 357 352 348 344 341 339 339 339 337 343 334 329 328 323 319 313 311 305 306 301 304 304 305 305 297 294 294
18 7 11 16 14 18 5 359 358 356 350 353 4 16 8 1 356 352 349 348 344 342 344 343 341 335 325 322 322 321 317 319 316 307 300 299 300 300 302 303 301 297 296
11 9 14 10 9 359 1 8 359 359 3 360 2 4 2 358 355 350 348 349 346 345 344 343 341 336 330 326 323 323 323 320 316 314 306 306 303 299 298 302 300 297 295
26 23 13 5 3 9 8 7 8 2 359 359 358 358 359 360 359 354 354 353 351 347 342 340 336 330 328 329 332 328 322 320 320 317 314 311 307 302 298 295 297 293 293
24 14 11 7 8 7 10 13 5 4 2 1 1 359 358 2 2 0 358 356 353 350 347 342 340 339 335 333 330 328 328 326 321 317 314 310 306 302 299 299 296 292 291
17 10 9 7 8 7 7 7 3 2 3 3 2 2 2 2 3 2 0 359 357 355 351 349 345 342 340 337 331 329 326 323 319 316 313 310 306 304 300 301 297 294 291
12 7 5 10 3 4 2 8 10 12 12 7 8 7 5 3 1 3 2 1 0 358 356 353 348 343 339 335 332 328 323 320 316 315 310 308 306 303 301 302 299 294 289
9 2 4 7 5 3 5 6 7 14 15 12 10 6 6 6 5 2 2 2 1 0 359 356 352 345 340 335 332 328 326 319 315 310 309 308 304 301 297 296 296 295 290
357 360 4 5 4 5 5 2 0 3 6 7 5 3 3 2 2 2 0 1 0 360 358 356 355 353 346 342 337 332 326 323 319 312 306 303 302 301 296 294 295 293 291
5 4 0 10 5 2 3 1 4 3 359 358 2 2 360 358 360 2 0 359 357 359 358 357 355 355 352 345 340 336 332 328 325 319 310 303 297 295 293 289 289 289 286
0 354 356 3 7 9 5 359 4 359 356 356 359 0 360 358 359 359 359 357 356 356 356 357 358 357 356 352 346 339 334 327 325 331 319 310 301 295 292 289 284 284 284
4 7 2 358 358 1 2 358 355 357 357 357 1 359 0 3 359 358 355 353 356 357 359 358 359 360 359 1 353 342 339 333 334 339 327 316 309 300 296 291 287 279 281
359 3 358 351 358 1 3 5 4 359 360 359 357 359 1 360 356 355 354 354 352 354 356 357 358 359 2 4 3 360 348 342 355 344 330 320 313 305 300 297 290 279 278
351 351 346 342 354 1 2 4 6 4 0 0 1 1 0 358 355 354 354 354 354 353 355 356 357 358 2 4 6 8 10 7 7 356 348 335 313 308 303 296 291 283 281
345 351 353 356 359 5 8 4 5 2 2 1 2 1 359 356 355 356 357 355 355 357 357 355 354 358 1 2 5 9 9 4 359 4 338 288 294 295 301 290 287 285 281
4 358 352 345 355 4 1 4 0 5 5 2 1 2 358 354 355 356 356 359 2 2 358 356 356 354 358 354 1 7 2 355 6 357 326 296 289 286 276 285 282 285 282
6 358 357 3 4 7 5 358 354 360 2 5 7 3 359 358 0 360 5 3 360 359 359 359 359 1 340 312 345 1 355 325 328 325 344 332 296 286 275 268 265 277 279
5 358 355 359 355 345 349 353 359 2 6 3 3 4 4 1 3 6 0 360 358 360 2 1 2 3 1 348 12 14 350 327 320 319 6 4 337 303 291 285 283 268 276